Theta_e
318 319 319 319 320 320 320 320 320 320 320 320 320 319 319 319 317 317 318 316 314 315 315 314 315 318 318 323 323 322 324 324 323 324 324 323 325 323 322 323 322 322 322 327 331
319 319 319 319 319 319 319 319 320 320 320 320 319 320 320 319 318 318 318 317 316 316 315 316 321 321 321 323 324 325 323 322 322 322 323 323 324 324 323 323 323 323 323 323 330
320 320 320 320 320 319 319 319 319 320 320 320 319 319 320 319 317 319 317 316 316 316 316 314 320 321 320 322 323 324 323 322 322 320 321 323 323 322 322 323 322 322 321 321 322
320 321 321 320 320 319 318 318 319 320 320 320 319 318 319 319 322 317 315 317 318 316 317 318 320 320 321 321 322 323 322 323 323 323 323 322 321 321 321 321 321 320 319 320 320
322 321 321 321 321 319 318 318 317 318 319 319 318 316 317 317 317 317 317 317 317 315 318 319 320 321 322 322 321 323 322 321 321 321 320 320 320 321 320 320 319 319 319 319 319
322 322 321 321 320 319 319 318 318 317 319 319 317 315 316 319 315 316 317 316 317 314 316 318 321 321 321 321 321 320 320 320 319 319 320 320 320 318 319 318 319 320 320 319 319
322 322 321 320 319 320 319 319 318 316 318 317 316 315 314 316 315 317 316 316 316 318 316 315 320 321 319 320 319 319 321 321 320 319 320 318 320 320 319 319 319 320 320 320 318
322 322 321 319 320 320 319 320 318 316 315 314 313 314 316 315 314 315 315 316 316 317 319 316 318 321 321 319 320 320 320 322 320 318 318 318 321 320 319 319 319 320 320 319 318
321 321 320 320 320 321 321 319 318 315 315 313 313 315 318 316 316 316 316 316 318 320 321 320 320 321 320 321 321 321 322 321 320 318 319 319 321 320 319 319 320 320 319 318 319
322 322 321 320 321 322 321 319 318 314 315 314 315 319 317 314 314 315 316 316 317 322 322 322 322 323 322 322 323 322 321 321 321 320 319 320 321 321 320 320 320 319 319 320 320
323 323 323 323 322 319 319 319 315 315 315 311 310 310 311 313 314 313 314 313 317 320 323 322 323 325 323 322 321 320 320 321 321 320 320 321 321 321 320 319 319 319 319 319 319
323 324 324 322 321 317 317 313 308 309 309 311 310 310 310 310 312 314 313 314 316 318 320 321 321 321 320 319 320 320 321 321 320 320 320 320 320 320 320 319 318 318 318 317 318
323 324 323 320 318 316 315 313 309 306 311 312 311 312 312 312 315 314 313 315 316 317 318 319 319 319 319 320 320 320 321 321 321 321 319 320 321 320 318 318 317 315 314 314 315
322 323 323 319 316 315 315 316 313 307 317 315 314 315 315 315 313 312 312 314 316 317 317 318 317 317 318 318 318 320 319 320 320 320 321 318 320 320 319 319 315 312 310 310 311
323 324 323 315 313 314 314 316 313 309 322 315 314 311 313 311 311 311 309 314 315 316 316 318 317 316 318 318 317 318 314 316 318 319 319 319 319 319 318 319 313 309 308 307 308
325 324 322 314 312 313 313 315 309 318 321 315 311 310 311 308 308 307 309 309 311 313 314 315 310 310 313 311 312 313 313 315 316 317 318 318 318 318 318 318 311 307 306 305 305
324 323 319 315 312 312 313 312 320 321 315 313 312 310 309 311 309 308 310 311 313 313 314 313 312 308 304 308 310 310 313 316 317 318 319 316 317 317 315 309 307 306 305 303 303
320 320 317 313 311 312 313 317 319 318 316 313 310 310 311 308 309 306 309 311 308 309 312 313 314 309 305 307 310 311 312 316 319 318 318 315 317 318 310 304 304 303 303 302 301
311 311 311 311 311 313 312 317 316 316 313 312 312 312 313 306 305 307 308 311 310 309 312 313 313 304 302 302 304 310 309 309 311 312 314 315 315 312 308 305 305 303 301 300 300
309 310 311 311 312 314 314 315 314 312 309 309 312 312 313 313 312 313 312 309 309 305 304 309 309 306 304 302 302 303 304 307 308 312 316 313 313 313 312 307 302 300 300 300 300
310 313 310 312 312 310 314 314 312 310 309 311 312 312 312 312 311 311 310 310 308 307 303 304 305 308 302 303 305 303 303 304 306 310 313 313 311 308 306 301 300 301 301 301 301
312 313 308 310 310 309 312 311 307 310 308 309 309 311 311 311 311 311 311 310 302 302 306 304 304 306 305 301 301 301 302 303 310 309 307 306 307 306 302 300 300 301 301 301 301
311 309 308 309 312 311 309 308 307 309 309 310 310 307 305 308 307 308 306 303 302 302 305 303 304 306 306 303 300 302 303 303 304 303 304 305 305 302 300 301 301 302 302 303 303
311 312 305 304 304 307 308 309 309 306 306 306 306 307 308 309 307 307 308 306 302 302 304 302 303 306 309 307 301 301 301 300 301 302 302 302 301 299 300 302 302 303 303 304 304
311 308 306 309 305 305 304 305 308 309 306 305 307 306 308 309 307 307 307 306 303 303 303 303 304 303 304 303 300 300 299 300 300 300 299 298 298 299 300 302 303 303 304 304 304
308 306 304 302 301 302 303 305 305 306 306 306 307 306 306 307 306 306 306 304 305 303 304 302 304 301 301 300 299 299 299 298 299 299 299 298 298 300 301 302 302 303 303 302 302
305 304 305 303 302 303 304 304 304 304 304 305 305 305 305 305 304 304 301 303 302 301 302 302 301 300 298 296 297 298 299 299 299 299 299 300 300 301 303 302 302 302 302 301 301
Wind_Speed
13 14 15 16 17 18 18 18 18 18 17 17 17 16 15 14 13 10 4 1 2 4 4 4 4 4 3 2 2 2 4 4 2 2 2 3 3 1 5 5 2 2 5 6 8
14 15 16 18 18 19 20 21 20 20 19 18 18 16 15 14 12 4 3 3 4 3 2 5 6 5 3 3 3 5 4 2 0 1 3 3 5 10 6 7 9 8 5 7 7
15 16 18 19 19 20 21 22 22 21 19 18 18 16 14 13 7 1 4 3 2 2 3 4 5 4 4 3 5 3 4 2 2 4 5 7 11 5 10 8 7 12 14 12 11
15 16 18 19 20 21 22 24 23 20 18 18 17 14 11 8 3 4 4 2 2 3 4 4 5 4 4 4 3 5 7 7 4 2 6 11 13 12 13 17 14 16 17 18 18
16 17 19 20 21 22 23 25 25 24 20 17 14 11 6 3 2 5 4 3 3 4 5 5 6 3 5 1 3 7 5 7 8 9 12 11 15 14 20 15 7 10 9 12 16
16 18 19 21 22 23 24 26 27 25 20 16 13 8 2 4 3 4 4 1 1 2 4 4 3 4 2 3 5 4 9 13 12 14 11 12 13 3 3 2 9 9 11 11 11
17 18 19 22 23 24 24 26 27 23 18 14 11 7 3 2 2 4 4 1 1 1 1 4 2 2 1 4 3 7 10 12 12 6 2 3 8 8 4 7 14 14 12 10 11
18 18 19 22 24 24 25 27 25 23 16 14 10 5 0 0 3 3 2 2 3 1 2 3 8 2 3 2 5 8 7 6 4 3 2 3 11 1 4 14 17 20 18 16 14
18 18 19 22 24 25 26 27 27 14 12 18 5 3 3 3 3 3 4 2 2 3 3 4 5 3 3 6 9 6 11 10 10 2 2 2 13 8 15 22 17 15 13 11 12
18 18 19 21 24 25 26 25 20 5 23 7 6 2 3 0 3 4 5 3 3 6 5 5 4 6 6 7 10 12 13 14 12 5 13 19 21 18 18 17 15 11 9 11 13
16 17 19 20 22 24 28 26 17 3 25 4 11 9 12 12 5 4 5 4 3 5 7 4 8 10 11 10 13 13 16 20 18 15 16 16 16 15 18 18 8 3 7 13 16
15 17 19 20 20 20 22 19 13 10 11 7 5 4 5 5 2 1 4 5 8 12 4 5 14 13 8 11 13 15 17 19 17 8 6 16 18 17 14 2 4 6 9 12 16
15 17 19 19 14 19 19 18 17 15 6 4 2 2 3 5 1 2 1 3 4 6 9 13 5 3 4 6 10 14 16 18 18 16 15 16 18 6 9 11 7 9 11 14 17
18 20 20 19 10 16 15 17 17 14 4 3 1 1 2 2 1 1 1 0 3 4 4 8 3 9 12 14 12 16 11 15 15 11 12 2 10 12 10 9 7 9 12 17 19
17 20 18 15 12 11 13 15 17 7 6 3 2 1 1 2 0 2 1 2 6 4 4 2 4 7 10 12 9 13 3 10 13 14 15 20 8 15 6 14 4 10 15 15 17
18 20 18 13 10 9 10 11 9 4 5 2 2 2 3 0 1 4 2 2 1 4 7 15 2 4 12 6 10 7 10 13 12 12 15 22 18 15 11 3 4 7 12 15 18
16 17 15 13 8 6 4 9 4 5 3 1 1 2 2 3 3 1 2 7 7 7 12 7 13 3 3 8 8 9 12 9 10 10 15 6 9 13 8 6 6 6 10 14 18
14 14 13 12 8 4 2 5 6 2 5 2 2 5 6 3 2 2 3 8 7 7 11 13 18 6 5 6 8 10 14 12 12 13 13 2 7 0 10 9 5 6 10 15 21
13 12 13 12 7 2 1 5 5 2 3 4 7 10 9 1 3 5 5 11 5 7 10 13 14 3 1 2 3 4 10 6 10 9 7 10 7 6 8 4 3 9 14 18 21
13 13 11 11 4 6 3 5 5 3 3 2 7 4 9 5 6 8 8 1 5 4 4 8 14 4 2 3 4 7 3 5 4 6 6 9 14 7 8 2 10 17 22 22 21
8 4 4 2 6 3 4 4 4 6 5 5 7 9 12 13 13 15 8 14 10 6 4 5 5 5 1 6 8 5 6 4 3 2 4 4 4 5 7 5 15 21 25 25 24
1 2 1 8 3 3 5 3 4 4 5 6 7 14 18 16 16 17 16 15 4 2 7 4 4 11 11 0 3 3 5 4 4 5 3 3 7 4 5 17 24 27 30 31 28
2 3 5 11 3 4 6 4 6 13 12 4 9 5 3 6 6 6 6 2 3 5 4 3 6 6 5 7 3 6 7 6 7 5 12 7 4 2 16 20 25 28 30 30 30
2 1 2 7 2 2 5 8 8 0 3 4 5 7 10 8 8 5 8 3 2 1 2 2 7 11 10 2 1 3 7 7 9 6 7 11 15 16 16 18 23 28 29 28 29
2 1 2 2 3 7 2 3 3 4 1 4 4 9 6 4 5 7 9 7 6 5 4 5 7 10 14 13 10 11 9 12 12 11 7 10 6 13 15 16 23 27 25 29 34
3 1 1 5 5 3 4 3 4 8 4 5 8 11 4 7 11 16 9 7 7 9 6 6 3 6 11 7 10 13 13 13 15 15 12 14 16 13 11 18 21 22 23 26 34
1 0 2 5 3 3 4 4 3 5 9 16 10 8 12 15 17 19 12 16 7 6 10 6 5 5 7 2 6 10 13 15 12 8 12 10 6 10 11 15 18 19 22 24 27
Wind_Direction
7 0 355 351 348 345 340 336 333 332 331 330 327 327 329 330 328 319 301 240 159 164 176 207 188 173 139 126 135 153 237 246 256 239 69 354 320 309 311 266 307 290 306 316 330
359 354 352 349 347 343 339 335 329 326 324 324 322 319 322 325 330 325 199 124 126 159 189 183 176 168 171 163 176 227 248 259 89 233 240 278 295 318 296 275 283 273 264 302 306
354 354 351 348 346 346 345 339 332 326 322 321 321 318 315 325 335 192 162 136 136 192 206 199 176 182 210 196 191 176 259 153 249 245 272 282 286 285 290 274 272 300 298 289 275
350 350 350 349 349 348 347 341 337 331 325 319 320 319 311 322 323 182 176 198 248 231 217 190 182 197 229 231 195 255 261 257 308 271 303 299 308 287 285 289 311 303 295 283 273
347 347 347 347 346 348 349 345 343 335 327 321 318 319 310 274 256 215 210 239 262 238 209 206 208 230 257 271 244 252 294 282 270 275 276 274 269 276 277 291 320 319 322 308 291
345 344 345 346 346 348 350 347 342 336 331 325 321 325 314 251 234 206 199 216 296 252 239 213 271 243 303 269 257 322 288 283 283 276 267 273 280 243 170 18 325 321 306 323 332
339 340 340 342 345 347 349 345 342 341 338 331 325 329 304 293 209 192 199 251 312 306 345 230 227 241 336 291 316 296 298 297 280 295 251 263 241 231 204 319 319 311 303 328 332
338 338 341 344 345 347 350 347 342 331 332 334 333 343 92 200 165 190 200 276 289 233 158 197 195 188 254 268 266 284 272 291 94 324 106 265 293 247 223 324 312 303 308 324 326
347 348 349 349 349 351 352 352 341 338 7 339 347 53 103 113 134 174 171 152 125 171 149 136 156 203 211 253 271 201 280 287 298 242 246 263 295 267 284 297 291 301 312 324 335
348 353 353 350 347 349 353 357 351 25 347 39 57 64 110 19 169 184 196 188 166 155 151 182 189 224 217 228 274 297 280 275 265 250 284 286 278 282 282 281 290 318 335 346 348
348 350 350 346 348 352 358 13 17 353 341 338 307 274 279 261 244 222 215 231 188 213 234 208 240 244 265 255 280 275 272 275 281 288 277 278 282 283 277 280 297 335 8 359 354
345 350 350 350 351 359 5 40 29 323 311 343 8 356 2 269 263 324 225 213 217 247 220 234 256 277 276 270 252 258 268 274 285 281 263 283 288 293 279 141 103 38 22 8 358
343 349 350 351 354 1 15 18 358 347 277 301 358 17 11 69 76 52 122 180 238 234 236 257 307 110 196 241 247 253 264 276 281 289 277 275 280 193 109 130 90 44 25 17 6
340 345 345 350 1 0 8 357 343 343 284 108 60 68 14 41 99 61 165 207 200 277 248 267 294 257 266 263 263 270 261 259 270 280 276 200 288 271 241 159 68 41 26 19 5
328 329 337 352 351 3 345 340 332 337 300 65 67 72 330 332 21 184 240 215 265 247 230 329 249 248 250 256 220 264 259 263 268 262 274 259 250 287 172 185 64 38 32 24 12
317 322 329 335 344 342 349 333 327 260 258 83 30 333 282 19 243 308 218 219 229 244 239 263 266 242 266 273 242 301 270 259 262 262 255 263 257 259 275 115 105 44 31 19 12
309 310 312 314 308 330 1 341 292 240 104 112 339 339 313 259 231 277 258 220 245 259 262 235 237 206 218 265 228 234 252 263 248 223 254 282 284 249 128 103 83 40 17 4 358
309 302 301 303 298 303 27 293 265 257 267 60 307 282 271 344 236 262 248 254 223 247 277 276 284 195 149 247 284 244 252 242 262 261 277 85 248 152 119 113 78 20 358 352 349
303 299 295 294 281 235 272 266 274 249 5 321 295 272 278 160 291 307 260 281 284 223 252 298 268 118 215 273 262 216 234 305 278 264 275 253 249 167 155 146 348 352 346 344 343
306 301 286 281 255 155 232 261 288 311 334 290 281 267 284 309 314 318 306 346 289 250 277 294 283 214 163 250 201 252 2 228 211 248 241 252 264 274 169 317 341 341 341 340 337
320 321 308 243 149 139 243 265 296 306 297 284 290 280 290 300 287 288 265 290 274 291 245 308 261 254 221 218 270 202 222 226 291 240 271 284 267 79 93 352 333 331 330 329 328
207 258 65 141 193 202 240 255 332 302 316 296 299 276 276 282 280 276 268 260 12 259 276 272 284 269 271 50 275 271 293 302 224 167 234 307 271 109 23 343 337 332 328 324 321
254 245 195 180 234 237 246 262 273 278 275 258 274 307 350 288 284 287 277 353 339 244 253 187 224 270 263 209 187 239 256 238 220 222 234 243 235 119 338 338 332 326 323 322 322
257 229 150 198 257 285 278 270 247 149 254 299 305 307 277 278 250 271 268 243 354 232 28 40 244 230 264 333 10 209 200 203 214 219 246 236 290 316 329 325 324 323 323 321 323
242 205 227 197 210 252 36 344 295 299 302 240 218 232 249 260 265 248 267 269 248 225 177 199 237 230 252 256 258 266 240 205 216 250 254 287 285 298 307 312 316 328 327 331 334
270 233 169 159 172 150 175 217 250 269 226 250 245 285 242 238 263 291 284 257 276 199 200 199 250 246 265 252 247 255 249 239 229 243 251 271 277 274 302 314 326 340 340 338 335
261 217 313 186 170 180 214 229 256 308 263 259 281 290 270 274 282 281 277 262 248 233 209 196 225 225 258 236 266 256 240 230 233 233 226 243 302 326 318 324 334 343 344 347 332